Location: Austin
(30.3000°N, 97.7500°W)
Time: 12:12:48
(UTC-05:00)

Cosmos 1437 Rocket - Pass Details

Date: 26 May 2023
Orbit: 492 x 551 km, 81.2° (Epoch: 31 May)

Event Time Altitude Azimuth Distance (km) Brightness Sun altitude
Rises 21:52:26 0° 357° (N) 2,693 7.0 -16.9°
Reaches altitude 10° 21:54:36 10° 1° (N) 1,806 5.9 -17.3°
Maximum altitude 21:58:33 59° 81° (E) 631 2.8 -18.0°
Enters shadow 21:59:36 43° 138° (SE) 778 3.1 -18.1°
